Flag for U.S.A. Weather past 2 weeks in Knoxville, Tennessee, U.S.A.

Now
75 °F

Sunny.


Feels Like: 78 °F
Forecast: 56 / 82 °F
Wind: No wind

Location: McGhee Tyson Airport

Current Time: Oct 1, 2014 at 9:01:35 PM

Latest Report: Oct 1, 2014 at 7:53 PM


Visibility: 10 mi

Pressure: 29.96 "Hg

Humidity: 45%

Dew point: 52 °F

Location of KnoxvilleLocation

Historic Weather in Knoxville — Graph

°F

Knoxville temperature yesterday

Maximum temperature yesterday: 82 °F (at 3:53 PM)
Minimum temperature yesterday: 60 °F (at 5:53 AM)
Average temperature yesterday: 70 °F

Past Weeks' High & Low Weather Summary

 TemperatureHumidityPressure
High85 °F (Sep 19, 3:53 PM)100% (Sep 28, 7:53 AM)30.31 "Hg (Sep 28, 7:53 AM)
Low50 °F (Sep 23, 6:53 AM)33% (Sep 24, 5:53 PM)29.86 "Hg (Sep 30, 5:53 PM)
Average69 °F71%30.06 "Hg
* Reported Sep 16 7:53 PM — Oct 1 7:53 PM, Knoxville, Weather by CustomWeather, © 2014

Note: Actual official high and low records may vary slightly from our data, if they occured in-between our weather recording intervals... More about our weather records

Advertising

Knoxville weather history for previous 24 hours

 ConditionsComfort  
Time TempWeatherWind HumidityBarometerVisibility
7:53 PM
Oct 1
75 °FSunny.No wind45%29.96 "Hg10 mi
5:53 PM82 °FScattered clouds.5 mph35%29.95 "Hg10 mi
4:53 PM82 °FPartly sunny.6 mph37%29.95 "Hg10 mi
3:53 PM83 °FBroken clouds.5 mph37%29.96 "Hg10 mi
2:53 PM81 °FBroken clouds.No wind38%29.96 "Hg10 mi
1:53 PM81 °FBroken clouds.5 mph39%29.97 "Hg10 mi
12:53 PM77 °FPartly sunny.No wind54%29.99 "Hg10 mi
10:53 AM71 °FPartly sunny.No wind68%30.01 "Hg7 mi
9:53 AM66 °FBroken clouds.No wind78%30.01 "Hg6 mi
8:53 AM59 °FFog.No wind90%29.99 "Hg4 mi
7:53 AM56 °FFog.No wind97%29.98 "Hg4 mi
6:53 AM57 °FFog.No wind93%29.96 "Hg6 mi
5:53 AM56 °FPassing clouds.3 mph93%29.94 "Hg7 mi
4:53 AM57 °FFog.No wind96%29.92 "Hg6 mi
3:53 AM57 °FFog.3 mph96%29.91 "Hg5 mi
2:53 AM60 °FClear.3 mph90%29.92 "Hg9 mi
1:53 AM62 °FClear.No wind83%29.91 "Hg10 mi
12:53 AM62 °FClear.No wind86%29.91 "Hg10 mi
11:53 PM
Sep 30
63 °FClear.3 mph84%29.92 "Hg10 mi
10:53 PM66 °FPassing clouds.No wind78%29.92 "Hg10 mi
9:53 PM68 °FClear.No wind73%29.91 "Hg10 mi
Weather by CustomWeather, © 2014

See weather overviewHow to use our weather pages